Year,Month,Day,Hour,Minute,Value (Times are PST for temperature in C)
2017,05,28,00,00,13.90
2017,05,28,00,01,13.90
2017,05,28,00,02,13.90
2017,05,28,00,03,13.80
2017,05,28,00,04,13.80
2017,05,28,00,05,13.80
2017,05,28,00,06,13.80
2017,05,28,00,07,13.80
2017,05,28,00,08,13.70
2017,05,28,00,09,13.70
2017,05,28,00,10,13.70
2017,05,28,00,11,13.70
2017,05,28,00,12,13.70
2017,05,28,00,13,13.60
2017,05,28,00,14,13.60
2017,05,28,00,15,13.60
2017,05,28,00,16,13.60
2017,05,28,00,17,13.50
2017,05,28,00,18,13.50
2017,05,28,00,19,13.50
2017,05,28,00,20,13.40
2017,05,28,00,21,13.40
2017,05,28,00,22,13.40
2017,05,28,00,23,13.40
2017,05,28,00,24,13.40
2017,05,28,00,25,13.40
2017,05,28,00,26,13.40
2017,05,28,00,27,13.30
2017,05,28,00,28,13.30
2017,05,28,00,29,13.30
2017,05,28,00,30,13.30
2017,05,28,00,31,13.30
2017,05,28,00,32,13.30
2017,05,28,00,33,13.30
2017,05,28,00,34,13.30
2017,05,28,00,35,13.30
2017,05,28,00,36,13.30
2017,05,28,00,37,13.30
2017,05,28,00,38,13.20
2017,05,28,00,39,13.30
2017,05,28,00,40,13.20
2017,05,28,00,41,13.20
2017,05,28,00,42,13.20
2017,05,28,00,43,13.20
2017,05,28,00,44,13.20
2017,05,28,00,45,13.20
2017,05,28,00,46,13.10
2017,05,28,00,47,13.10
2017,05,28,00,48,13.10
2017,05,28,00,49,13.10
2017,05,28,00,50,13.10
2017,05,28,00,51,13.10
2017,05,28,00,52,13.10
2017,05,28,00,53,13.10
2017,05,28,00,54,13.10
2017,05,28,00,55,13.10
2017,05,28,00,56,13.10
2017,05,28,00,57,13.00
2017,05,28,00,58,13.00
2017,05,28,00,59,13.00
2017,05,28,01,00,13.00
2017,05,28,01,01,12.90
2017,05,28,01,02,12.90
2017,05,28,01,03,12.90
2017,05,28,01,04,12.90
2017,05,28,01,05,12.90
2017,05,28,01,06,12.80
2017,05,28,01,07,12.80
2017,05,28,01,08,12.80
2017,05,28,01,09,12.80
2017,05,28,01,10,12.80
2017,05,28,01,11,12.80
2017,05,28,01,12,12.70
2017,05,28,01,13,12.70
2017,05,28,01,14,12.70
2017,05,28,01,15,12.70
2017,05,28,01,16,12.70
2017,05,28,01,17,12.70
2017,05,28,01,18,12.60
2017,05,28,01,19,12.60
2017,05,28,01,20,12.60
2017,05,28,01,21,12.60
2017,05,28,01,22,12.60
2017,05,28,01,23,12.50
2017,05,28,01,24,12.50
2017,05,28,01,25,12.50
2017,05,28,01,26,12.50
2017,05,28,01,27,12.40
2017,05,28,01,28,12.40
2017,05,28,01,29,12.40
2017,05,28,01,30,12.40
2017,05,28,01,31,12.40
2017,05,28,01,32,12.40
2017,05,28,01,33,12.30
2017,05,28,01,34,12.30
2017,05,28,01,35,12.30
2017,05,28,01,36,12.30
2017,05,28,01,37,12.30
2017,05,28,01,38,12.20
2017,05,28,01,39,12.20
2017,05,28,01,40,12.20
2017,05,28,01,41,12.20
2017,05,28,01,42,12.20
2017,05,28,01,43,12.20
2017,05,28,01,44,12.10
2017,05,28,01,45,12.10
2017,05,28,01,46,12.10
2017,05,28,01,47,12.10
2017,05,28,01,48,12.10
2017,05,28,01,49,12.10
2017,05,28,01,50,12.10
2017,05,28,01,51,12.10
2017,05,28,01,52,12.10
2017,05,28,01,53,12.10
2017,05,28,01,54,12.10
2017,05,28,01,55,12.00
2017,05,28,01,56,12.00
2017,05,28,01,57,12.00
2017,05,28,01,58,12.00
2017,05,28,01,59,11.90
2017,05,28,02,00,11.90
2017,05,28,02,01,11.90
2017,05,28,02,02,11.90
2017,05,28,02,03,11.90
2017,05,28,02,04,11.90
2017,05,28,02,05,11.90
2017,05,28,02,06,11.90
2017,05,28,02,07,11.90
2017,05,28,02,08,11.90
2017,05,28,02,09,11.80
2017,05,28,02,10,11.80
2017,05,28,02,11,11.80
2017,05,28,02,12,11.80
2017,05,28,02,13,11.80
2017,05,28,02,14,11.80
2017,05,28,02,15,11.80
2017,05,28,02,16,11.80
2017,05,28,02,17,11.80
2017,05,28,02,18,11.80
2017,05,28,02,19,11.80
2017,05,28,02,20,11.70
2017,05,28,02,21,11.70
2017,05,28,02,22,11.70
2017,05,28,02,23,11.70
2017,05,28,02,24,11.70
2017,05,28,02,25,11.70
2017,05,28,02,26,11.70
2017,05,28,02,27,11.70
2017,05,28,02,28,11.70
2017,05,28,02,29,11.70
2017,05,28,02,30,11.60
2017,05,28,02,31,11.60
2017,05,28,02,32,11.60
2017,05,28,02,33,11.60
2017,05,28,02,34,11.60
2017,05,28,02,35,11.60
2017,05,28,02,36,11.60
2017,05,28,02,37,11.50
2017,05,28,02,38,11.50
2017,05,28,02,39,11.50
2017,05,28,02,40,11.40
2017,05,28,02,41,11.40
2017,05,28,02,42,11.40
2017,05,28,02,43,11.40
2017,05,28,02,44,11.30
2017,05,28,02,45,11.30
2017,05,28,02,46,11.30
2017,05,28,02,47,11.30
2017,05,28,02,48,11.30
2017,05,28,02,49,11.30
2017,05,28,02,50,11.30
2017,05,28,02,51,11.30
2017,05,28,02,52,11.30
2017,05,28,02,53,11.30
2017,05,28,02,54,11.30
2017,05,28,02,55,11.30
2017,05,28,02,56,11.20
2017,05,28,02,57,11.20
2017,05,28,02,58,11.20
2017,05,28,02,59,11.20
2017,05,28,03,00,11.20
2017,05,28,03,01,11.20
2017,05,28,03,02,11.20
2017,05,28,03,03,11.20
2017,05,28,03,04,11.20
2017,05,28,03,05,11.20
2017,05,28,03,06,11.20
2017,05,28,03,07,11.20
2017,05,28,03,08,11.20
2017,05,28,03,09,11.20
2017,05,28,03,10,11.20
2017,05,28,03,11,11.20
2017,05,28,03,12,11.20
2017,05,28,03,13,11.20
2017,05,28,03,14,11.20
2017,05,28,03,15,11.20
2017,05,28,03,16,11.20
2017,05,28,03,17,11.20
2017,05,28,03,18,11.10
2017,05,28,03,19,11.20
2017,05,28,03,20,11.20
2017,05,28,03,21,11.20
2017,05,28,03,22,11.20
2017,05,28,03,23,11.20
2017,05,28,03,24,11.20
2017,05,28,03,25,11.10
2017,05,28,03,26,11.10
2017,05,28,03,27,11.10
2017,05,28,03,28,11.10
2017,05,28,03,29,11.10
2017,05,28,03,30,11.10
2017,05,28,03,31,11.10
2017,05,28,03,32,11.10
2017,05,28,03,33,11.10
2017,05,28,03,34,11.00
2017,05,28,03,35,11.00
2017,05,28,03,36,11.00
2017,05,28,03,37,11.00
2017,05,28,03,38,11.00
2017,05,28,03,39,11.00
2017,05,28,03,40,11.00
2017,05,28,03,41,11.00
2017,05,28,03,42,11.00
2017,05,28,03,43,11.00
2017,05,28,03,44,11.00
2017,05,28,03,45,11.00
2017,05,28,03,46,11.00
2017,05,28,03,47,11.00
2017,05,28,03,48,10.90
2017,05,28,03,49,10.90
2017,05,28,03,50,10.90
2017,05,28,03,51,10.90
2017,05,28,03,52,10.90
2017,05,28,03,53,10.90
2017,05,28,03,54,10.90
2017,05,28,03,55,10.90
2017,05,28,03,56,10.80
2017,05,28,03,57,10.80
2017,05,28,03,58,10.80
2017,05,28,03,59,10.80
2017,05,28,04,00,10.80
2017,05,28,04,01,10.80
2017,05,28,04,02,10.80
2017,05,28,04,03,10.80
2017,05,28,04,04,10.80
2017,05,28,04,05,10.80
2017,05,28,04,06,10.80
2017,05,28,04,07,10.80
2017,05,28,04,08,10.80
2017,05,28,04,09,10.80
2017,05,28,04,10,10.80
2017,05,28,04,11,10.80
2017,05,28,04,12,10.70
2017,05,28,04,13,10.70
2017,05,28,04,14,10.70
2017,05,28,04,15,10.70
2017,05,28,04,16,10.70
2017,05,28,04,17,10.70
2017,05,28,04,18,10.70
2017,05,28,04,19,10.70
2017,05,28,04,20,10.70
2017,05,28,04,21,10.70
2017,05,28,04,22,10.70
2017,05,28,04,23,10.70
2017,05,28,04,24,10.70
2017,05,28,04,25,10.70
2017,05,28,04,26,10.70
2017,05,28,04,27,10.70
2017,05,28,04,28,10.70
2017,05,28,04,29,10.60
2017,05,28,04,30,10.60
2017,05,28,04,31,10.60
2017,05,28,04,32,10.60
2017,05,28,04,33,10.60
2017,05,28,04,34,10.60
2017,05,28,04,35,10.70
2017,05,28,04,36,10.70
2017,05,28,04,37,10.70
2017,05,28,04,38,10.70
2017,05,28,04,39,10.70
2017,05,28,04,40,10.70
2017,05,28,04,41,10.70
2017,05,28,04,42,10.70
2017,05,28,04,43,10.70
2017,05,28,04,44,10.70
2017,05,28,04,45,10.70
2017,05,28,04,46,10.70
2017,05,28,04,47,10.60
2017,05,28,04,48,10.60
2017,05,28,04,49,10.60
2017,05,28,04,50,10.60
2017,05,28,04,51,10.60
2017,05,28,04,52,10.60
2017,05,28,04,53,10.50
2017,05,28,04,54,10.50
2017,05,28,04,55,10.50
2017,05,28,04,56,10.50
2017,05,28,04,57,10.40
2017,05,28,04,58,10.40
2017,05,28,04,59,10.40
2017,05,28,05,00,10.40
2017,05,28,05,01,10.40
2017,05,28,05,02,10.40
2017,05,28,05,03,10.40
2017,05,28,05,04,10.40
2017,05,28,05,05,10.40
2017,05,28,05,06,10.40
2017,05,28,05,07,10.40
2017,05,28,05,08,10.40
2017,05,28,05,09,10.30
2017,05,28,05,10,10.30
2017,05,28,05,11,10.30
2017,05,28,05,12,10.30
2017,05,28,05,13,10.30
2017,05,28,05,14,10.30
2017,05,28,05,15,10.30
2017,05,28,05,16,10.30
2017,05,28,05,17,10.30
2017,05,28,05,18,10.30
2017,05,28,05,19,10.30
2017,05,28,05,20,10.30
2017,05,28,05,21,10.30
2017,05,28,05,22,10.30
2017,05,28,05,23,10.30
2017,05,28,05,24,10.30
2017,05,28,05,25,10.30
2017,05,28,05,26,10.30
2017,05,28,05,27,10.30
2017,05,28,05,28,10.20
2017,05,28,05,29,10.20
2017,05,28,05,30,10.20
2017,05,28,05,31,10.20
2017,05,28,05,32,10.20
2017,05,28,05,33,10.20
2017,05,28,05,34,10.20
2017,05,28,05,35,10.20
2017,05,28,05,36,10.10
2017,05,28,05,37,10.10
2017,05,28,05,38,10.10
2017,05,28,05,39,10.10
2017,05,28,05,40,10.10
2017,05,28,05,41,10.10
2017,05,28,05,42,10.10
2017,05,28,05,43,10.10
2017,05,28,05,44,10.10
2017,05,28,05,45,10.10
2017,05,28,05,46,10.10
2017,05,28,05,47,10.10
2017,05,28,05,48,10.10
2017,05,28,05,49,10.00
2017,05,28,05,50,10.00
2017,05,28,05,51,10.00
2017,05,28,05,52,10.00
2017,05,28,05,53,10.00
2017,05,28,05,54,10.10
2017,05,28,05,55,10.10
2017,05,28,05,56,10.10
2017,05,28,05,57,10.10
2017,05,28,05,58,10.10
2017,05,28,05,59,10.10
2017,05,28,06,00,10.10
2017,05,28,06,01,10.10
2017,05,28,06,02,10.10
2017,05,28,06,03,10.10
2017,05,28,06,04,10.10
2017,05,28,06,05,10.10
2017,05,28,06,06,10.10
2017,05,28,06,07,10.10
2017,05,28,06,08,10.20
2017,05,28,06,09,10.20
2017,05,28,06,10,10.20
2017,05,28,06,11,10.20
2017,05,28,06,12,10.20
2017,05,28,06,13,10.20
2017,05,28,06,14,10.20
2017,05,28,06,15,10.20
2017,05,28,06,16,10.20
2017,05,28,06,17,10.20
2017,05,28,06,18,10.20
2017,05,28,06,19,10.20
2017,05,28,06,20,10.20
2017,05,28,06,21,10.20
2017,05,28,06,22,10.30
2017,05,28,06,23,10.30
2017,05,28,06,24,10.30
2017,05,28,06,25,10.30
2017,05,28,06,26,10.40
2017,05,28,06,27,10.40
2017,05,28,06,28,10.40
2017,05,28,06,29,10.50
2017,05,28,06,30,10.50
2017,05,28,06,31,10.60
2017,05,28,06,32,10.60
2017,05,28,06,33,10.60
2017,05,28,06,34,10.70
2017,05,28,06,35,10.70
2017,05,28,06,36,10.70
2017,05,28,06,37,10.70
2017,05,28,06,38,10.80
2017,05,28,06,39,10.80
2017,05,28,06,40,10.80
2017,05,28,06,41,10.90
2017,05,28,06,42,10.90
2017,05,28,06,43,11.00
2017,05,28,06,44,11.10
2017,05,28,06,45,11.20
2017,05,28,06,46,11.30
2017,05,28,06,47,11.30
2017,05,28,06,48,11.40
2017,05,28,06,49,11.50
2017,05,28,06,50,11.50
2017,05,28,06,51,11.60
2017,05,28,06,52,11.60
2017,05,28,06,53,11.70
2017,05,28,06,54,11.80
2017,05,28,06,55,11.90
2017,05,28,06,56,12.00
2017,05,28,06,57,12.10
2017,05,28,06,58,12.10
2017,05,28,06,59,12.20
2017,05,28,07,00,12.30
2017,05,28,07,01,12.30
2017,05,28,07,02,12.40
2017,05,28,07,03,12.40
2017,05,28,07,04,12.50
2017,05,28,07,05,12.50
2017,05,28,07,06,12.50
2017,05,28,07,07,12.50
2017,05,28,07,08,12.50
2017,05,28,07,09,12.60
2017,05,28,07,10,12.60
2017,05,28,07,11,12.60
2017,05,28,07,12,12.70
2017,05,28,07,13,12.70
2017,05,28,07,14,12.80
2017,05,28,07,15,12.80
2017,05,28,07,16,12.90
2017,05,28,07,17,12.90
2017,05,28,07,18,13.00
2017,05,28,07,19,13.10
2017,05,28,07,20,13.10
2017,05,28,07,21,13.20
2017,05,28,07,22,13.30
2017,05,28,07,23,13.30
2017,05,28,07,24,13.30
2017,05,28,07,25,13.40
2017,05,28,07,26,13.40
2017,05,28,07,27,13.50
2017,05,28,07,28,13.50
2017,05,28,07,29,13.60
2017,05,28,07,30,13.60
2017,05,28,07,31,13.70
2017,05,28,07,32,13.70
2017,05,28,07,33,13.70
2017,05,28,07,34,13.80
2017,05,28,07,35,13.80
2017,05,28,07,36,13.90
2017,05,28,07,37,13.90
2017,05,28,07,38,13.90
2017,05,28,07,39,14.00
2017,05,28,07,40,14.00
2017,05,28,07,41,14.10
2017,05,28,07,42,14.20
2017,05,28,07,43,14.20
2017,05,28,07,44,14.30
2017,05,28,07,45,14.40
2017,05,28,07,46,14.50
2017,05,28,07,47,14.50
2017,05,28,07,48,14.60
2017,05,28,07,49,14.60
2017,05,28,07,50,14.70
2017,05,28,07,51,14.70
2017,05,28,07,52,14.80
2017,05,28,07,53,14.80
2017,05,28,07,54,14.80
2017,05,28,07,55,14.90
2017,05,28,07,56,14.90
2017,05,28,07,57,15.00
2017,05,28,07,58,15.00
2017,05,28,07,59,15.10
2017,05,28,08,00,15.10
2017,05,28,08,01,15.10
2017,05,28,08,02,15.20
2017,05,28,08,03,15.20
2017,05,28,08,04,15.30
2017,05,28,08,05,15.30
2017,05,28,08,06,15.40
2017,05,28,08,07,15.40
2017,05,28,08,08,15.50
2017,05,28,08,09,15.50
2017,05,28,08,10,15.60
2017,05,28,08,11,15.70
2017,05,28,08,12,15.70
2017,05,28,08,13,15.80
2017,05,28,08,14,15.90
2017,05,28,08,15,16.00
2017,05,28,08,16,16.10
2017,05,28,08,17,16.20
2017,05,28,08,18,16.30
2017,05,28,08,19,16.30
2017,05,28,08,20,16.50
2017,05,28,08,21,16.60
2017,05,28,08,22,16.80
2017,05,28,08,23,16.90
2017,05,28,08,24,17.10
2017,05,28,08,25,17.20
2017,05,28,08,26,17.30
2017,05,28,08,27,17.40
2017,05,28,08,28,17.50
2017,05,28,08,29,17.60
2017,05,28,08,30,17.70
2017,05,28,08,31,17.80
2017,05,28,08,32,17.90
2017,05,28,08,33,17.90
2017,05,28,08,34,17.90
2017,05,28,08,35,18.00
2017,05,28,08,36,18.00
2017,05,28,08,37,18.00
2017,05,28,08,38,18.10
2017,05,28,08,39,18.10
2017,05,28,08,40,18.10
2017,05,28,08,41,18.10
2017,05,28,08,42,18.20
2017,05,28,08,43,18.20
2017,05,28,08,44,18.20
2017,05,28,08,45,18.30
2017,05,28,08,46,18.30
2017,05,28,08,47,18.30
2017,05,28,08,48,18.30
2017,05,28,08,49,18.40
2017,05,28,08,50,18.40
2017,05,28,08,51,18.50
2017,05,28,08,52,18.50
2017,05,28,08,53,18.60
2017,05,28,08,54,18.60
2017,05,28,08,55,18.70
2017,05,28,08,56,18.80
2017,05,28,08,57,18.80
2017,05,28,08,58,18.90
2017,05,28,08,59,18.90
2017,05,28,09,00,19.00
2017,05,28,09,01,19.00
2017,05,28,09,02,19.10
2017,05,28,09,03,19.10
2017,05,28,09,04,19.20
2017,05,28,09,05,19.20
2017,05,28,09,06,19.20
2017,05,28,09,07,19.20
2017,05,28,09,08,19.30
2017,05,28,09,09,19.30
2017,05,28,09,10,19.30
2017,05,28,09,11,19.30
2017,05,28,09,12,19.40
2017,05,28,09,13,19.40
2017,05,28,09,14,19.40
2017,05,28,09,15,19.50
2017,05,28,09,16,19.50
2017,05,28,09,17,19.60
2017,05,28,09,18,19.60
2017,05,28,09,19,19.70
2017,05,28,09,20,19.70
2017,05,28,09,21,19.80
2017,05,28,09,22,19.80
2017,05,28,09,23,19.80
2017,05,28,09,24,19.80
2017,05,28,09,25,19.80
2017,05,28,09,26,19.80
2017,05,28,09,27,19.90
2017,05,28,09,28,19.90
2017,05,28,09,29,20.00
2017,05,28,09,30,20.10
2017,05,28,09,31,20.20
2017,05,28,09,32,20.20
2017,05,28,09,33,20.20
2017,05,28,09,34,20.30
2017,05,28,09,35,20.30
2017,05,28,09,36,20.30
2017,05,28,09,37,20.30
2017,05,28,09,38,20.30
2017,05,28,09,39,20.40
2017,05,28,09,40,20.40
2017,05,28,09,41,20.40
2017,05,28,09,42,20.40
2017,05,28,09,43,20.40
2017,05,28,09,44,20.40
2017,05,28,09,45,20.50
2017,05,28,09,46,20.50
2017,05,28,09,47,20.60
2017,05,28,09,48,20.70
2017,05,28,09,49,20.80
2017,05,28,09,50,20.80
2017,05,28,09,51,20.90
2017,05,28,09,52,21.00
2017,05,28,09,53,21.00
2017,05,28,09,54,21.10
2017,05,28,09,55,21.10
2017,05,28,09,56,21.20
2017,05,28,09,57,21.20
2017,05,28,09,58,21.20
2017,05,28,09,59,21.20
2017,05,28,10,00,21.30
2017,05,28,10,01,21.30
2017,05,28,10,02,21.30
2017,05,28,10,03,21.30
2017,05,28,10,04,21.30
2017,05,28,10,05,21.40
2017,05,28,10,06,21.40
2017,05,28,10,07,21.40
2017,05,28,10,08,21.50
2017,05,28,10,09,21.50
2017,05,28,10,10,21.60
2017,05,28,10,11,21.60
2017,05,28,10,12,21.70
2017,05,28,10,13,21.70
2017,05,28,10,14,21.70
2017,05,28,10,15,21.80
2017,05,28,10,16,21.80
2017,05,28,10,17,21.90
2017,05,28,10,18,21.90
2017,05,28,10,19,21.90
2017,05,28,10,20,21.80
2017,05,28,10,21,21.80
2017,05,28,10,22,21.70
2017,05,28,10,23,21.70
2017,05,28,10,24,21.70
2017,05,28,10,25,21.70
2017,05,28,10,26,21.70
2017,05,28,10,27,21.70
2017,05,28,10,28,21.70
2017,05,28,10,29,21.70
2017,05,28,10,30,21.60
2017,05,28,10,31,21.60
2017,05,28,10,32,21.60
2017,05,28,10,33,21.60
2017,05,28,10,34,21.70
2017,05,28,10,35,21.70
2017,05,28,10,36,21.70
2017,05,28,10,37,21.70
2017,05,28,10,38,21.80
2017,05,28,10,39,21.80
2017,05,28,10,40,21.80
2017,05,28,10,41,21.80
2017,05,28,10,42,21.80
2017,05,28,10,43,21.80
2017,05,28,10,44,21.70
2017,05,28,10,45,21.70
2017,05,28,10,46,21.70
2017,05,28,10,47,21.70
2017,05,28,10,48,21.70
2017,05,28,10,49,21.80
2017,05,28,10,50,21.80
2017,05,28,10,51,21.80
2017,05,28,10,52,21.80
2017,05,28,10,53,21.70
2017,05,28,10,54,21.70
2017,05,28,10,55,21.70
2017,05,28,10,56,21.70
2017,05,28,10,57,21.80
2017,05,28,10,58,21.80
2017,05,28,10,59,21.80
2017,05,28,11,00,21.80
2017,05,28,11,01,21.80
2017,05,28,11,02,21.70
2017,05,28,11,03,21.70
2017,05,28,11,04,21.70
2017,05,28,11,05,21.70
2017,05,28,11,06,21.70
2017,05,28,11,07,21.70
2017,05,28,11,08,21.70
2017,05,28,11,09,21.80
2017,05,28,11,10,21.90
2017,05,28,11,11,21.90
2017,05,28,11,12,22.00
2017,05,28,11,13,22.10
2017,05,28,11,14,22.20
2017,05,28,11,15,22.20
2017,05,28,11,16,22.30
2017,05,28,11,17,22.30
2017,05,28,11,18,22.30
2017,05,28,11,19,22.30
2017,05,28,11,20,22.30
2017,05,28,11,21,22.30
2017,05,28,11,22,22.30
2017,05,28,11,23,22.20
2017,05,28,11,24,22.20
2017,05,28,11,25,22.10
2017,05,28,11,26,22.10
2017,05,28,11,27,22.10
2017,05,28,11,28,22.10
2017,05,28,11,29,22.10
2017,05,28,11,30,22.00
2017,05,28,11,31,22.00
2017,05,28,11,32,22.00
2017,05,28,11,33,22.00
2017,05,28,11,34,22.00
2017,05,28,11,35,22.00
2017,05,28,11,36,22.00
2017,05,28,11,37,22.00
2017,05,28,11,38,22.10
2017,05,28,11,39,22.10
2017,05,28,11,40,22.20
2017,05,28,11,41,22.20
2017,05,28,11,42,22.30
2017,05,28,11,43,22.30
2017,05,28,11,44,22.40
2017,05,28,11,45,22.40
2017,05,28,11,46,22.40
2017,05,28,11,47,22.40
2017,05,28,11,48,22.40
2017,05,28,11,49,22.30
2017,05,28,11,50,22.40
2017,05,28,11,51,22.40
2017,05,28,11,52,22.40
2017,05,28,11,53,22.30
2017,05,28,11,54,22.30
2017,05,28,11,55,22.30
2017,05,28,11,56,22.30
2017,05,28,11,57,22.30
2017,05,28,11,58,22.30
2017,05,28,11,59,22.30
2017,05,28,12,00,22.30
2017,05,28,12,01,22.30
2017,05,28,12,02,22.30
2017,05,28,12,03,22.40
2017,05,28,12,04,22.50
2017,05,28,12,05,22.60
2017,05,28,12,06,22.70
2017,05,28,12,07,22.70
2017,05,28,12,08,22.70
2017,05,28,12,09,22.80
2017,05,28,12,10,22.80
2017,05,28,12,11,22.80
2017,05,28,12,12,22.80
2017,05,28,12,13,22.80
2017,05,28,12,14,22.80
2017,05,28,12,15,22.80
2017,05,28,12,16,22.70
2017,05,28,12,17,22.60
2017,05,28,12,18,22.60
2017,05,28,12,19,22.60
2017,05,28,12,20,22.60
2017,05,28,12,21,22.60
2017,05,28,12,22,22.70
2017,05,28,12,23,22.80
2017,05,28,12,24,22.80
2017,05,28,12,25,22.90
2017,05,28,12,26,22.90
2017,05,28,12,27,22.90
2017,05,28,12,28,23.00
2017,05,28,12,29,23.00
2017,05,28,12,30,23.10
2017,05,28,12,31,23.10
2017,05,28,12,32,23.10
2017,05,28,12,33,23.10
2017,05,28,12,34,23.10
2017,05,28,12,35,23.10
2017,05,28,12,36,23.10
2017,05,28,12,37,23.10
2017,05,28,12,38,23.20
2017,05,28,12,39,23.30
2017,05,28,12,40,23.30
2017,05,28,12,41,23.30
2017,05,28,12,42,23.30
2017,05,28,12,43,23.20
2017,05,28,12,44,23.20
2017,05,28,12,45,23.20
2017,05,28,12,46,23.20
2017,05,28,12,47,23.20
2017,05,28,12,48,23.20
2017,05,28,12,49,23.20
2017,05,28,12,50,23.20
2017,05,28,12,51,23.20
2017,05,28,12,52,23.20
2017,05,28,12,53,23.20
2017,05,28,12,54,23.20
2017,05,28,12,55,23.30
2017,05,28,12,56,23.30
2017,05,28,12,57,23.40
2017,05,28,12,58,23.50
2017,05,28,12,59,23.60
2017,05,28,13,00,23.70
2017,05,28,13,01,23.80
2017,05,28,13,02,23.80
2017,05,28,13,03,23.80
2017,05,28,13,04,23.90
2017,05,28,13,05,23.90
2017,05,28,13,06,24.00
2017,05,28,13,07,24.10
2017,05,28,13,08,24.10
2017,05,28,13,09,24.10
2017,05,28,13,10,24.10
2017,05,28,13,11,24.20
2017,05,28,13,12,24.20
2017,05,28,13,13,24.20
2017,05,28,13,14,24.30
2017,05,28,13,15,24.30
2017,05,28,13,16,24.30
2017,05,28,13,17,24.30
2017,05,28,13,18,24.30
2017,05,28,13,19,24.30
2017,05,28,13,20,24.40
2017,05,28,13,21,24.40
2017,05,28,13,22,24.40
2017,05,28,13,23,24.40
2017,05,28,13,24,24.40
2017,05,28,13,25,24.30
2017,05,28,13,26,24.30
2017,05,28,13,27,24.20
2017,05,28,13,28,24.10
2017,05,28,13,29,23.90
2017,05,28,13,30,23.80
2017,05,28,13,31,23.70
2017,05,28,13,32,23.60
2017,05,28,13,33,23.60
2017,05,28,13,34,23.60
2017,05,28,13,35,23.50
2017,05,28,13,36,23.50
2017,05,28,13,37,23.40
2017,05,28,13,38,23.30
2017,05,28,13,39,23.30
2017,05,28,13,40,23.30
2017,05,28,13,41,23.30
2017,05,28,13,42,23.40
2017,05,28,13,43,23.40
2017,05,28,13,44,23.40
2017,05,28,13,45,23.40
2017,05,28,13,46,23.40
2017,05,28,13,47,23.40
2017,05,28,13,48,23.50
2017,05,28,13,49,23.50
2017,05,28,13,50,23.50
2017,05,28,13,51,23.50
2017,05,28,13,52,23.50
2017,05,28,13,53,23.60
2017,05,28,13,54,23.70
2017,05,28,13,55,23.80
2017,05,28,13,56,23.90
2017,05,28,13,57,23.90
2017,05,28,13,58,24.00
2017,05,28,13,59,24.10
2017,05,28,14,00,24.10
2017,05,28,14,01,24.20
2017,05,28,14,02,24.20
2017,05,28,14,03,24.30
2017,05,28,14,04,24.30
2017,05,28,14,05,24.30
2017,05,28,14,06,24.30
2017,05,28,14,07,24.20
2017,05,28,14,08,24.20
2017,05,28,14,09,24.20
2017,05,28,14,10,24.20
2017,05,28,14,11,24.20
2017,05,28,14,12,24.20
2017,05,28,14,13,24.20
2017,05,28,14,14,24.20
2017,05,28,14,15,24.20
2017,05,28,14,16,24.20
2017,05,28,14,17,24.20
2017,05,28,14,18,24.30
2017,05,28,14,19,24.30
2017,05,28,14,20,24.30
2017,05,28,14,21,24.30
2017,05,28,14,22,24.30
2017,05,28,14,23,24.30
2017,05,28,14,24,24.40
2017,05,28,14,25,24.40
2017,05,28,14,26,24.50
2017,05,28,14,27,24.50
2017,05,28,14,28,24.50
2017,05,28,14,29,24.50
2017,05,28,14,30,24.50
2017,05,28,14,31,24.40
2017,05,28,14,32,24.40
2017,05,28,14,33,24.40
2017,05,28,14,34,24.40
2017,05,28,14,35,24.40
2017,05,28,14,36,24.40
2017,05,28,14,37,24.50
2017,05,28,14,38,24.50
2017,05,28,14,39,24.50
2017,05,28,14,40,24.50
2017,05,28,14,41,24.50
2017,05,28,14,42,24.50
2017,05,28,14,43,24.50
2017,05,28,14,44,24.50
2017,05,28,14,45,24.60
2017,05,28,14,46,24.60
2017,05,28,14,47,24.70
2017,05,28,14,48,24.80
2017,05,28,14,49,24.80
2017,05,28,14,50,24.90
2017,05,28,14,51,25.00
2017,05,28,14,52,25.00
2017,05,28,14,53,25.10
2017,05,28,14,54,25.10
2017,05,28,14,55,25.10
2017,05,28,14,56,25.00
2017,05,28,14,57,24.90
2017,05,28,14,58,24.90
2017,05,28,14,59,24.90
2017,05,28,15,00,24.90
2017,05,28,15,01,25.00
2017,05,28,15,02,25.00
2017,05,28,15,03,25.00
2017,05,28,15,04,25.00
2017,05,28,15,05,25.00
2017,05,28,15,06,25.00
2017,05,28,15,07,25.00
2017,05,28,15,08,24.90
2017,05,28,15,09,24.90
2017,05,28,15,10,24.90
2017,05,28,15,11,24.90
2017,05,28,15,12,25.00
2017,05,28,15,13,25.10
2017,05,28,15,14,25.20
2017,05,28,15,15,25.30
2017,05,28,15,16,25.40
2017,05,28,15,17,25.40
2017,05,28,15,18,25.50
2017,05,28,15,19,25.50
2017,05,28,15,20,25.50
2017,05,28,15,21,25.50
2017,05,28,15,22,25.50
2017,05,28,15,23,25.50
2017,05,28,15,24,25.50
2017,05,28,15,25,25.50
2017,05,28,15,26,25.50
2017,05,28,15,27,25.50
2017,05,28,15,28,25.50
2017,05,28,15,29,25.60
2017,05,28,15,30,25.60
2017,05,28,15,31,25.60
2017,05,28,15,32,25.60
2017,05,28,15,33,25.60
2017,05,28,15,34,25.60
2017,05,28,15,35,25.70
2017,05,28,15,36,25.70
2017,05,28,15,37,25.70
2017,05,28,15,38,25.80
2017,05,28,15,39,25.80
2017,05,28,15,40,25.90
2017,05,28,15,41,25.90
2017,05,28,15,42,25.90
2017,05,28,15,43,26.00
2017,05,28,15,44,26.00
2017,05,28,15,45,26.10
2017,05,28,15,46,26.10
2017,05,28,15,47,26.10
2017,05,28,15,48,26.10
2017,05,28,15,49,26.10
2017,05,28,15,50,26.00
2017,05,28,15,51,26.00
2017,05,28,15,52,25.90
2017,05,28,15,53,25.90
2017,05,28,15,54,25.90
2017,05,28,15,55,25.90
2017,05,28,15,56,25.80
2017,05,28,15,57,25.80
2017,05,28,15,58,25.80
2017,05,28,15,59,25.70
2017,05,28,16,00,25.80
2017,05,28,16,01,25.80
2017,05,28,16,02,25.80
2017,05,28,16,03,25.80
2017,05,28,16,04,25.80
2017,05,28,16,05,25.80
2017,05,28,16,06,25.80
2017,05,28,16,07,25.70
2017,05,28,16,08,25.70
2017,05,28,16,09,25.70
2017,05,28,16,10,25.70
2017,05,28,16,11,25.60
2017,05,28,16,12,25.60
2017,05,28,16,13,25.50
2017,05,28,16,14,25.50
2017,05,28,16,15,25.40
2017,05,28,16,16,25.40
2017,05,28,16,17,25.30
2017,05,28,16,18,25.30
2017,05,28,16,19,25.30
2017,05,28,16,20,25.20
2017,05,28,16,21,25.20
2017,05,28,16,22,25.20
2017,05,28,16,23,25.20
2017,05,28,16,24,25.20
2017,05,28,16,25,25.20
2017,05,28,16,26,25.20
2017,05,28,16,27,25.20
2017,05,28,16,28,25.20
2017,05,28,16,29,25.10
2017,05,28,16,30,25.10
2017,05,28,16,31,25.10
2017,05,28,16,32,25.10
2017,05,28,16,33,25.10
2017,05,28,16,34,25.10
2017,05,28,16,35,25.10
2017,05,28,16,36,25.20
2017,05,28,16,37,25.20
2017,05,28,16,38,25.20
2017,05,28,16,39,25.20
2017,05,28,16,40,25.30
2017,05,28,16,41,25.30
2017,05,28,16,42,25.30
2017,05,28,16,43,25.30
2017,05,28,16,44,25.30
2017,05,28,16,45,25.30
2017,05,28,16,46,25.30
2017,05,28,16,47,25.30
2017,05,28,16,48,25.30
2017,05,28,16,49,25.30
2017,05,28,16,50,25.30
2017,05,28,16,51,25.20
2017,05,28,16,52,25.20
2017,05,28,16,53,25.20
2017,05,28,16,54,25.20
2017,05,28,16,55,25.30
2017,05,28,16,56,25.30
2017,05,28,16,57,25.30
2017,05,28,16,58,25.30
2017,05,28,16,59,25.40
2017,05,28,17,00,25.40
2017,05,28,17,01,25.40
2017,05,28,17,02,25.40
2017,05,28,17,03,25.40
2017,05,28,17,04,25.40
2017,05,28,17,05,25.50
2017,05,28,17,06,25.60
2017,05,28,17,07,25.60
2017,05,28,17,08,25.70
2017,05,28,17,09,25.70
2017,05,28,17,10,25.80
2017,05,28,17,11,25.90
2017,05,28,17,12,25.90
2017,05,28,17,13,26.00
2017,05,28,17,14,26.10
2017,05,28,17,15,26.20
2017,05,28,17,16,26.20
2017,05,28,17,17,26.20
2017,05,28,17,18,26.20
2017,05,28,17,19,26.20